Time,TemperatureF,DewpointF,PressureIn,WindDirection,WindDirectionDegrees,WindSpeedMPH,WindSpeedGustMPH,Humidity,HourlyPrecipIn,Conditions,Clouds,dailyrainin,SoftwareType,DateUTC
2014-02-08 00:01:00,34.6,25.8,30.47,NNW,342,0.0,0.0,70,0.00,,,0.00,Wunderground v.1.13,2014-02-08 05:01:00,
2014-02-08 00:02:00,34.6,25.8,30.47,NNW,342,0.0,0.0,70,0.00,,,0.00,Wunderground v.1.13,2014-02-08 05:02:00,
2014-02-08 00:03:00,34.6,25.8,30.47,NNW,342,0.0,0.0,70,0.00,,,0.00,Wunderground v.1.13,2014-02-08 05:03:00,
2014-02-08 00:04:00,34.6,25.8,30.47,NNW,342,0.0,0.0,70,0.00,,,0.00,Wunderground v.1.13,2014-02-08 05:04:00,
2014-02-08 00:05:00,34.6,25.8,30.47,NNW,342,0.0,0.0,70,0.00,,,0.00,Wunderground v.1.13,2014-02-08 05:05:00,
2014-02-08 00:11:00,34.6,25.8,30.47,NNW,342,0.0,0.0,70,0.00,,,0.00,Wunderground v.1.13,2014-02-08 05:11:00,
2014-02-08 00:16:00,34.5,25.7,30.47,NNW,342,0.0,0.0,70,0.00,,,0.00,Wunderground v.1.13,2014-02-08 05:16:00,
2014-02-08 00:21:00,34.5,26.1,30.47,NNW,342,0.0,0.0,71,0.00,,,0.00,Wunderground v.1.13,2014-02-08 05:21:00,
2014-02-08 00:27:00,34.5,27.1,30.47,NNW,342,0.0,0.0,74,0.00,,,0.00,Wunderground v.1.13,2014-02-08 05:27:00,
2014-02-08 00:32:00,34.4,27.3,30.47,NNW,342,0.0,0.0,75,0.00,,,0.00,Wunderground v.1.13,2014-02-08 05:32:00,
2014-02-08 00:37:00,34.2,27.1,30.47,NNW,342,0.0,0.0,75,0.00,,,0.00,Wunderground v.1.13,2014-02-08 05:37:00,
2014-02-08 00:42:00,34.0,26.9,30.46,NNW,342,0.0,0.0,75,0.00,,,0.00,Wunderground v.1.13,2014-02-08 05:42:00,
2014-02-08 00:47:00,33.9,26.5,30.46,NNW,342,0.0,0.0,74,0.00,,,0.00,Wunderground v.1.13,2014-02-08 05:47:00,
2014-02-08 00:53:00,34.0,26.6,30.46,NNW,342,0.0,0.0,74,0.00,,,0.00,Wunderground v.1.13,2014-02-08 05:53:00,
2014-02-08 00:58:00,34.1,27.0,30.46,NNW,342,0.0,0.0,75,0.00,,,0.00,Wunderground v.1.13,2014-02-08 05:58:00,
2014-02-08 01:03:00,34.1,26.3,30.46,NNW,342,0.0,0.0,73,0.00,,,0.00,Wunderground v.1.13,2014-02-08 06:03:00,
2014-02-08 01:08:00,34.2,26.1,30.46,NNW,342,0.0,0.0,72,0.00,,,0.00,Wunderground v.1.13,2014-02-08 06:08:00,
2014-02-08 01:13:00,34.2,26.4,30.46,NNW,342,0.0,0.0,73,0.00,,,0.00,Wunderground v.1.13,2014-02-08 06:13:00,
2014-02-08 01:18:00,34.2,26.4,30.45,NNW,342,0.0,0.0,73,0.00,,,0.00,Wunderground v.1.13,2014-02-08 06:18:00,
2014-02-08 01:23:00,34.2,26.8,30.46,NNW,342,0.0,0.0,74,0.00,,,0.00,Wunderground v.1.13,2014-02-08 06:23:00,
2014-02-08 01:28:00,34.1,26.7,30.46,NNW,342,0.0,0.0,74,0.00,,,0.00,Wunderground v.1.13,2014-02-08 06:28:00,
2014-02-08 01:33:00,34.1,26.7,30.46,NNW,342,0.0,0.0,74,0.00,,,0.00,Wunderground v.1.13,2014-02-08 06:33:00,
2014-02-08 01:38:00,34.1,26.7,30.45,NNW,342,0.0,0.0,74,0.00,,,0.00,Wunderground v.1.13,2014-02-08 06:38:00,
2014-02-08 01:43:00,34.1,26.7,30.46,NNW,342,0.0,0.0,74,0.00,,,0.00,Wunderground v.1.13,2014-02-08 06:43:00,
2014-02-08 01:48:00,34.1,26.7,30.46,NNW,342,0.0,0.0,74,0.00,,,0.00,Wunderground v.1.13,2014-02-08 06:48:00,
2014-02-08 01:54:00,34.1,26.7,30.46,NNW,342,0.0,0.0,74,0.00,,,0.00,Wunderground v.1.13,2014-02-08 06:54:00,
2014-02-08 01:59:00,34.2,26.4,30.46,NNW,342,0.0,0.0,73,0.00,,,0.00,Wunderground v.1.13,2014-02-08 06:59:00,
2014-02-08 02:04:00,34.2,26.1,30.46,NNW,342,0.0,0.0,72,0.00,,,0.00,Wunderground v.1.13,2014-02-08 07:04:00,
2014-02-08 02:09:00,34.3,26.5,30.45,NNW,342,0.0,0.0,73,0.00,,,0.00,Wunderground v.1.13,2014-02-08 07:09:00,
2014-02-08 02:14:00,34.4,27.0,30.45,NNW,342,0.0,0.0,74,0.00,,,0.00,Wunderground v.1.13,2014-02-08 07:14:00,
2014-02-08 02:19:00,34.4,26.6,30.45,NNW,342,0.0,0.0,73,0.00,,,0.00,Wunderground v.1.13,2014-02-08 07:19:00,
2014-02-08 02:24:00,34.5,26.7,30.45,NNW,342,0.0,0.0,73,0.00,,,0.00,Wunderground v.1.13,2014-02-08 07:24:00,
2014-02-08 02:29:00,34.5,27.1,30.44,NNW,342,0.0,0.0,74,0.00,,,0.00,Wunderground v.1.13,2014-02-08 07:29:00,
2014-02-08 02:34:00,34.6,27.2,30.44,NNW,342,0.0,0.0,74,0.00,,,0.00,Wunderground v.1.13,2014-02-08 07:34:00,
2014-02-08 02:39:00,34.7,27.3,30.44,NNW,342,0.0,0.0,74,0.00,,,0.00,Wunderground v.1.13,2014-02-08 07:39:00,
2014-02-08 02:44:00,34.7,26.9,30.44,NNW,342,0.0,0.0,73,0.00,,,0.00,Wunderground v.1.13,2014-02-08 07:44:00,
2014-02-08 02:49:00,34.7,27.3,30.43,NNW,342,0.0,0.0,74,0.00,,,0.00,Wunderground v.1.13,2014-02-08 07:49:00,
2014-02-08 02:54:00,34.6,27.5,30.43,NNW,342,0.0,0.0,75,0.00,,,0.00,Wunderground v.1.13,2014-02-08 07:54:00,
2014-02-08 02:59:00,34.6,27.8,30.43,NNW,342,0.0,0.0,76,0.00,,,0.00,Wunderground v.1.13,2014-02-08 07:59:00,
2014-02-08 03:05:00,34.5,27.4,30.43,NNW,342,0.0,0.0,75,0.00,,,0.00,Wunderground v.1.13,2014-02-08 08:05:00,
2014-02-08 03:10:00,34.4,27.0,30.43,NNW,342,0.0,0.0,74,0.00,,,0.00,Wunderground v.1.13,2014-02-08 08:10:00,
2014-02-08 03:15:00,34.4,27.0,30.43,NNW,342,0.0,0.0,74,0.00,,,0.00,Wunderground v.1.13,2014-02-08 08:15:00,
2014-02-08 03:20:00,34.4,27.0,30.43,NNW,342,0.0,0.0,74,0.00,,,0.00,Wunderground v.1.13,2014-02-08 08:20:00,
2014-02-08 03:25:00,34.4,27.0,30.43,NNW,342,0.0,0.0,74,0.00,,,0.00,Wunderground v.1.13,2014-02-08 08:25:00,
2014-02-08 03:30:00,34.4,27.0,30.43,NNW,342,0.0,0.0,74,0.00,,,0.00,Wunderground v.1.13,2014-02-08 08:30:00,
2014-02-08 03:35:00,34.4,27.6,30.43,NNW,342,0.0,0.0,76,0.00,,,0.00,Wunderground v.1.13,2014-02-08 08:35:00,
2014-02-08 03:40:00,34.4,28.6,30.43,NNW,342,0.0,0.0,79,0.00,,,0.00,Wunderground v.1.13,2014-02-08 08:40:00,
2014-02-08 03:45:00,34.3,28.2,30.43,NNW,342,0.0,0.0,78,0.00,,,0.00,Wunderground v.1.13,2014-02-08 08:45:00,
2014-02-08 03:50:00,34.3,28.2,30.43,NNW,342,0.0,0.0,78,0.00,,,0.00,Wunderground v.1.13,2014-02-08 08:50:00,
2014-02-08 03:55:00,34.1,28.3,30.42,NNW,342,0.0,0.0,79,0.00,,,0.00,Wunderground v.1.13,2014-02-08 08:55:00,
2014-02-08 04:00:00,34.0,28.2,30.42,NNW,342,0.0,0.0,79,0.00,,,0.00,Wunderground v.1.13,2014-02-08 09:00:00,
2014-02-08 04:05:00,33.9,27.4,30.41,NNW,342,0.0,0.0,77,0.00,,,0.00,Wunderground v.1.13,2014-02-08 09:05:00,
2014-02-08 04:10:00,33.7,27.3,30.41,NNW,342,0.0,0.0,77,0.00,,,0.00,Wunderground v.1.13,2014-02-08 09:10:00,
2014-02-08 04:15:00,33.7,26.6,30.42,NNW,342,0.0,0.0,75,0.00,,,0.00,Wunderground v.1.13,2014-02-08 09:15:00,
2014-02-08 04:20:00,33.6,26.5,30.42,NNW,342,0.0,0.0,75,0.00,,,0.00,Wunderground v.1.13,2014-02-08 09:20:00,
2014-02-08 04:25:00,33.7,26.9,30.42,NNW,342,0.0,0.0,76,0.00,,,0.00,Wunderground v.1.13,2014-02-08 09:25:00,
2014-02-08 04:30:00,33.8,28.0,30.41,NNW,342,0.0,0.0,79,0.00,,,0.00,Wunderground v.1.13,2014-02-08 09:30:00,
2014-02-08 04:35:00,33.8,27.4,30.41,NNW,342,0.0,0.0,77,0.00,,,0.00,Wunderground v.1.13,2014-02-08 09:35:00,
2014-02-08 04:40:00,33.8,26.7,30.41,NNW,342,0.0,0.0,75,0.00,,,0.00,Wunderground v.1.13,2014-02-08 09:40:00,
2014-02-08 04:45:00,33.9,27.1,30.41,NNW,342,0.0,0.0,76,0.00,,,0.00,Wunderground v.1.13,2014-02-08 09:45:00,
2014-02-08 04:51:00,33.9,27.1,30.40,NNW,342,0.0,0.0,76,0.00,,,0.00,Wunderground v.1.13,2014-02-08 09:51:00,
2014-02-08 04:56:00,34.0,27.2,30.40,NNW,342,0.0,0.0,76,0.00,,,0.00,Wunderground v.1.13,2014-02-08 09:56:00,
2014-02-08 05:01:00,34.0,27.2,30.40,NNW,342,0.0,0.0,76,0.00,,,0.00,Wunderground v.1.13,2014-02-08 10:01:00,
2014-02-08 05:06:00,34.1,26.7,30.40,NNW,342,0.0,0.0,74,0.00,,,0.00,Wunderground v.1.13,2014-02-08 10:06:00,
2014-02-08 05:11:00,34.1,27.3,30.40,NNW,342,0.0,0.0,76,0.00,,,0.00,Wunderground v.1.13,2014-02-08 10:11:00,
2014-02-08 05:16:00,34.1,27.6,30.39,NNW,342,0.0,0.0,77,0.00,,,0.00,Wunderground v.1.13,2014-02-08 10:16:00,
2014-02-08 05:21:00,34.2,27.4,30.38,NNW,342,0.0,0.0,76,0.00,,,0.00,Wunderground v.1.13,2014-02-08 10:21:00,
2014-02-08 05:26:00,34.3,27.8,30.38,NNW,342,0.0,0.0,77,0.00,,,0.00,Wunderground v.1.13,2014-02-08 10:26:00,
2014-02-08 05:31:00,34.4,27.9,30.40,NNW,342,0.0,0.0,77,0.00,,,0.00,Wunderground v.1.13,2014-02-08 10:31:00,
2014-02-08 05:36:00,34.5,28.0,30.41,NNW,342,0.0,0.0,77,0.00,,,0.00,Wunderground v.1.13,2014-02-08 10:36:00,
2014-02-08 05:41:00,34.5,28.3,30.41,NNW,342,0.0,0.0,78,0.00,,,0.00,Wunderground v.1.13,2014-02-08 10:41:00,
2014-02-08 05:46:00,34.4,29.2,30.41,NNW,342,0.0,0.0,81,0.00,,,0.00,Wunderground v.1.13,2014-02-08 10:46:00,
2014-02-08 05:51:00,33.9,29.0,30.41,NNW,342,1.0,1.0,82,0.00,,,0.00,Wunderground v.1.13,2014-02-08 10:51:00,
2014-02-08 05:56:00,33.5,28.9,30.41,NNW,342,0.0,1.0,83,0.00,,,0.00,Wunderground v.1.13,2014-02-08 10:56:00,
2014-02-08 06:01:00,33.3,28.7,30.42,NNW,342,0.0,0.0,83,0.00,,,0.00,Wunderground v.1.13,2014-02-08 11:01:00,
2014-02-08 06:06:00,33.3,29.0,30.42,NNW,342,0.0,0.0,84,0.00,,,0.00,Wunderground v.1.13,2014-02-08 11:06:00,
2014-02-08 06:11:00,33.3,29.0,30.42,NNW,342,0.0,0.0,84,0.00,,,0.00,Wunderground v.1.13,2014-02-08 11:11:00,
2014-02-08 06:16:00,33.2,28.9,30.42,NNW,342,0.0,0.0,84,0.00,,,0.00,Wunderground v.1.13,2014-02-08 11:16:00,
2014-02-08 06:21:00,33.3,29.0,30.42,NNW,342,0.0,0.0,84,0.00,,,0.00,Wunderground v.1.13,2014-02-08 11:21:00,
2014-02-08 06:26:00,33.3,28.7,30.41,NNW,342,0.0,0.0,83,0.00,,,0.00,Wunderground v.1.13,2014-02-08 11:26:00,
2014-02-08 06:31:00,33.3,28.4,30.41,NNW,342,0.0,0.0,82,0.00,,,0.00,Wunderground v.1.13,2014-02-08 11:31:00,
2014-02-08 06:36:00,33.4,28.2,30.41,NNW,342,0.0,0.0,81,0.00,,,0.00,Wunderground v.1.13,2014-02-08 11:36:00,
2014-02-08 06:41:00,33.5,28.3,30.41,NNW,342,0.0,0.0,81,0.00,,,0.00,Wunderground v.1.13,2014-02-08 11:41:00,
2014-02-08 06:46:00,33.5,28.3,30.40,NNW,342,0.0,0.0,81,0.00,,,0.00,Wunderground v.1.13,2014-02-08 11:46:00,
2014-02-08 06:51:00,33.6,28.1,30.40,NNW,342,0.0,0.0,80,0.00,,,0.00,Wunderground v.1.13,2014-02-08 11:51:00,
2014-02-08 06:56:00,33.7,27.9,30.40,NNW,342,0.0,0.0,79,0.00,,,0.00,Wunderground v.1.13,2014-02-08 11:56:00,
2014-02-08 07:01:00,33.9,28.1,30.39,NNW,342,0.0,0.0,79,0.00,,,0.00,Wunderground v.1.13,2014-02-08 12:01:00,
2014-02-08 07:06:00,33.9,28.4,30.39,NNW,342,0.0,0.0,80,0.00,,,0.00,Wunderground v.1.13,2014-02-08 12:06:00,
2014-02-08 07:11:00,33.8,29.2,30.40,NNW,342,0.0,0.0,83,0.00,,,0.00,Wunderground v.1.13,2014-02-08 12:11:00,
2014-02-08 07:16:00,33.6,29.3,30.40,NNW,342,0.0,0.0,84,0.00,,,0.00,Wunderground v.1.13,2014-02-08 12:16:00,
2014-02-08 07:21:00,33.4,29.1,30.40,NNW,342,0.0,0.0,84,0.00,,,0.00,Wunderground v.1.13,2014-02-08 12:21:00,
2014-02-08 07:26:00,33.2,28.9,30.40,NNW,342,0.0,0.0,84,0.00,,,0.00,Wunderground v.1.13,2014-02-08 12:26:00,
2014-02-08 07:31:00,33.1,28.5,30.41,NNW,342,0.0,0.0,83,0.00,,,0.00,Wunderground v.1.13,2014-02-08 12:31:00,
2014-02-08 07:36:00,33.0,28.7,30.41,NNW,342,0.0,0.0,84,0.00,,,0.00,Wunderground v.1.13,2014-02-08 12:36:00,
2014-02-08 07:41:00,32.9,28.3,30.42,NNW,342,0.0,0.0,83,0.00,,,0.00,Wunderground v.1.13,2014-02-08 12:41:00,
2014-02-08 07:46:00,32.9,28.6,30.42,NNW,342,0.0,0.0,84,0.00,,,0.00,Wunderground v.1.13,2014-02-08 12:46:00,
2014-02-08 07:51:00,32.9,28.3,30.42,NNW,342,0.0,0.0,83,0.00,,,0.00,Wunderground v.1.13,2014-02-08 12:51:00,
2014-02-08 07:56:00,32.9,28.0,30.42,NNW,342,0.0,0.0,82,0.00,,,0.00,Wunderground v.1.13,2014-02-08 12:56:00,
2014-02-08 08:02:00,33.0,28.1,30.42,NNW,342,0.0,0.0,82,0.00,,,0.00,Wunderground v.1.13,2014-02-08 13:02:00,
2014-02-08 08:07:00,33.0,28.1,30.42,NNW,342,0.0,0.0,82,0.00,,,0.00,Wunderground v.1.13,2014-02-08 13:07:00,
2014-02-08 08:12:00,33.1,28.2,30.43,NNW,342,0.0,0.0,82,0.00,,,0.00,Wunderground v.1.13,2014-02-08 13:12:00,
2014-02-08 08:17:00,33.2,28.6,30.43,NNW,342,0.0,0.0,83,0.00,,,0.00,Wunderground v.1.13,2014-02-08 13:17:00,
2014-02-08 08:22:00,33.3,28.7,30.43,NNW,342,0.0,0.0,83,0.00,,,0.00,Wunderground v.1.13,2014-02-08 13:22:00,
2014-02-08 08:27:00,33.4,28.8,30.43,NNW,342,0.0,0.0,83,0.00,,,0.00,Wunderground v.1.13,2014-02-08 13:27:00,
2014-02-08 08:32:00,33.5,28.9,30.43,NNW,342,0.0,0.0,83,0.00,,,0.00,Wunderground v.1.13,2014-02-08 13:32:00,
2014-02-08 08:37:00,33.5,28.9,30.43,NNW,342,0.0,0.0,83,0.00,,,0.00,Wunderground v.1.13,2014-02-08 13:37:00,
2014-02-08 08:42:00,33.7,28.8,30.44,NNW,342,0.0,0.0,82,0.00,,,0.00,Wunderground v.1.13,2014-02-08 13:42:00,
2014-02-08 08:47:00,33.9,28.7,30.43,NNW,342,0.0,1.0,81,0.00,,,0.00,Wunderground v.1.13,2014-02-08 13:47:00,
2014-02-08 08:52:00,34.0,28.2,30.43,NNW,342,0.0,0.0,79,0.00,,,0.00,Wunderground v.1.13,2014-02-08 13:52:00,
2014-02-08 08:57:00,34.2,28.1,30.42,NNW,342,0.0,0.0,78,0.00,,,0.00,Wunderground v.1.13,2014-02-08 13:57:00,
2014-02-08 09:02:00,34.4,28.6,30.43,NNW,342,0.0,0.0,79,0.00,,,0.00,Wunderground v.1.13,2014-02-08 14:02:00,
2014-02-08 09:07:00,34.7,28.5,30.43,NNW,342,0.0,0.0,78,0.00,,,0.00,Wunderground v.1.13,2014-02-08 14:07:00,
2014-02-08 09:12:00,34.9,28.7,30.44,NNW,342,0.0,0.0,78,0.00,,,0.00,Wunderground v.1.13,2014-02-08 14:12:00,
2014-02-08 09:17:00,35.1,28.9,30.44,NNW,342,0.0,0.0,78,0.00,,,0.00,Wunderground v.1.13,2014-02-08 14:17:00,
2014-02-08 09:22:00,35.3,29.1,30.45,NNW,342,0.0,0.0,78,0.00,,,0.00,Wunderground v.1.13,2014-02-08 14:22:00,
2014-02-08 09:27:00,35.4,29.2,30.45,NNW,342,0.0,0.0,78,0.00,,,0.00,Wunderground v.1.13,2014-02-08 14:27:00,
2014-02-08 09:32:00,35.5,29.3,30.45,NNW,342,0.0,0.0,78,0.00,,,0.00,Wunderground v.1.13,2014-02-08 14:32:00,
2014-02-08 09:37:00,35.6,29.7,30.45,NNW,342,0.0,0.0,79,0.00,,,0.00,Wunderground v.1.13,2014-02-08 14:37:00,
2014-02-08 09:42:00,35.8,29.6,30.45,NNW,342,0.0,0.0,78,0.00,,,0.00,Wunderground v.1.13,2014-02-08 14:42:00,
2014-02-08 09:47:00,36.0,30.1,30.45,NNW,342,0.0,0.0,79,0.00,,,0.00,Wunderground v.1.13,2014-02-08 14:47:00,
2014-02-08 09:53:00,36.1,29.9,30.45,NNW,342,0.0,0.0,78,0.00,,,0.00,Wunderground v.1.13,2014-02-08 14:53:00,
2014-02-08 09:58:00,36.2,30.3,30.45,NNW,342,0.0,0.0,79,0.00,,,0.00,Wunderground v.1.13,2014-02-08 14:58:00,
2014-02-08 10:03:00,36.4,30.2,30.45,NNW,342,0.0,0.0,78,0.00,,,0.00,Wunderground v.1.13,2014-02-08 15:03:00,
2014-02-08 10:08:00,36.6,30.4,30.45,NNW,342,0.0,0.0,78,0.00,,,0.00,Wunderground v.1.13,2014-02-08 15:08:00,
2014-02-08 10:13:00,36.7,29.8,30.45,NNW,342,0.0,0.0,76,0.00,,,0.00,Wunderground v.1.13,2014-02-08 15:13:00,
2014-02-08 10:18:00,36.9,30.4,30.45,NNW,342,0.0,0.0,77,0.00,,,0.00,Wunderground v.1.13,2014-02-08 15:18:00,
2014-02-08 10:23:00,37.2,30.7,30.44,NNW,342,0.0,1.0,77,0.00,,,0.00,Wunderground v.1.13,2014-02-08 15:23:00,
2014-02-08 10:28:00,37.7,31.1,30.45,NNW,342,0.0,0.0,77,0.00,,,0.00,Wunderground v.1.13,2014-02-08 15:28:00,
2014-02-08 10:33:00,38.0,31.1,30.45,NNW,342,0.0,0.0,76,0.00,,,0.00,Wunderground v.1.13,2014-02-08 15:33:00,
2014-02-08 10:38:00,38.2,31.3,30.44,NNW,342,0.0,0.0,76,0.00,,,0.00,Wunderground v.1.13,2014-02-08 15:38:00,
2014-02-08 10:43:00,38.4,31.5,30.44,NNW,342,0.0,1.0,76,0.00,,,0.00,Wunderground v.1.13,2014-02-08 15:43:00,
2014-02-08 10:48:00,38.6,31.7,30.44,NNW,342,0.0,1.0,76,0.00,,,0.00,Wunderground v.1.13,2014-02-08 15:48:00,
2014-02-08 10:53:00,38.7,31.5,30.44,NNW,342,0.0,0.0,75,0.00,,,0.00,Wunderground v.1.13,2014-02-08 15:53:00,
2014-02-08 10:58:00,38.8,31.9,30.44,NNW,342,0.0,0.0,76,0.00,,,0.00,Wunderground v.1.13,2014-02-08 15:58:00,
2014-02-08 11:03:00,39.0,32.1,30.43,NNW,342,0.0,0.0,76,0.00,,,0.00,Wunderground v.1.13,2014-02-08 16:03:00,
2014-02-08 11:08:00,39.4,32.1,30.43,NNW,342,0.0,1.0,75,0.00,,,0.00,Wunderground v.1.13,2014-02-08 16:08:00,
2014-02-08 11:13:00,39.8,32.2,30.43,NNW,342,0.0,1.0,74,0.00,,,0.00,Wunderground v.1.13,2014-02-08 16:13:00,
2014-02-08 11:19:00,40.2,31.5,30.43,NNW,342,0.0,1.0,71,0.00,,,0.00,Wunderground v.1.13,2014-02-08 16:19:00,
2014-02-08 11:24:00,40.5,31.5,30.43,NNW,342,0.0,0.0,70,0.00,,,0.00,Wunderground v.1.13,2014-02-08 16:24:00,
2014-02-08 11:29:00,40.7,31.7,30.43,NNW,342,0.0,0.0,70,0.00,,,0.00,Wunderground v.1.13,2014-02-08 16:29:00,
2014-02-08 11:34:00,41.0,31.2,30.43,NNW,342,0.0,2.0,68,0.00,,,0.00,Wunderground v.1.13,2014-02-08 16:34:00,
2014-02-08 11:39:00,41.1,31.3,30.42,NNW,342,0.0,1.0,68,0.00,,,0.00,Wunderground v.1.13,2014-02-08 16:39:00,
2014-02-08 11:44:00,41.2,31.4,30.42,NNW,342,0.0,1.0,68,0.00,,,0.00,Wunderground v.1.13,2014-02-08 16:44:00,
2014-02-08 11:49:00,41.3,31.5,30.41,NNW,342,0.0,0.0,68,0.00,,,0.00,Wunderground v.1.13,2014-02-08 16:49:00,
2014-02-08 11:54:00,41.6,31.8,30.41,NNW,342,0.0,1.0,68,0.00,,,0.00,Wunderground v.1.13,2014-02-08 16:54:00,
2014-02-08 11:59:00,42.1,32.3,30.40,NNW,342,1.0,1.0,68,0.00,,,0.00,Wunderground v.1.13,2014-02-08 16:59:00,
2014-02-08 12:04:00,42.5,32.3,30.40,NNW,342,1.0,2.0,67,0.00,,,0.00,Wunderground v.1.13,2014-02-08 17:04:00,
2014-02-08 12:09:00,42.9,32.7,30.40,NNW,342,1.0,1.0,67,0.00,,,0.00,Wunderground v.1.13,2014-02-08 17:09:00,
2014-02-08 12:14:00,43.1,32.1,30.40,NNW,342,0.0,2.0,65,0.00,,,0.00,Wunderground v.1.13,2014-02-08 17:14:00,
2014-02-08 12:19:00,43.3,31.9,30.40,NNW,342,0.0,2.0,64,0.00,,,0.00,Wunderground v.1.13,2014-02-08 17:19:00,
2014-02-08 12:24:00,43.7,33.1,30.40,NNW,342,1.0,2.0,66,0.00,,,0.00,Wunderground v.1.13,2014-02-08 17:24:00,
2014-02-08 12:29:00,44.0,32.2,30.39,NNW,342,0.0,2.0,63,0.00,,,0.00,Wunderground v.1.13,2014-02-08 17:29:00,
2014-02-08 12:34:00,44.1,31.5,30.39,NNW,342,0.0,1.0,61,0.00,,,0.00,Wunderground v.1.13,2014-02-08 17:34:00,
2014-02-08 12:39:00,44.2,31.2,30.39,NNW,342,1.0,1.0,60,0.00,,,0.00,Wunderground v.1.13,2014-02-08 17:39:00,
2014-02-08 12:44:00,44.5,31.1,30.39,NNW,342,1.0,2.0,59,0.00,,,0.00,Wunderground v.1.13,2014-02-08 17:44:00,
2014-02-08 12:49:00,44.7,31.2,30.38,NNW,342,1.0,1.0,59,0.00,,,0.00,Wunderground v.1.13,2014-02-08 17:49:00,
2014-02-08 12:54:00,44.8,30.9,30.38,NNW,342,2.0,2.0,58,0.00,,,0.00,Wunderground v.1.13,2014-02-08 17:54:00,
2014-02-08 12:59:00,44.9,31.0,30.38,NNW,342,0.0,2.0,58,0.00,,,0.00,Wunderground v.1.13,2014-02-08 17:59:00,
2014-02-08 13:04:00,45.1,31.2,30.37,NNE,12,1.0,4.0,58,0.00,,,0.00,Wunderground v.1.13,2014-02-08 18:04:00,
2014-02-08 13:10:00,45.2,31.3,30.36,NNE,12,0.0,1.0,58,0.00,,,0.00,Wunderground v.1.13,2014-02-08 18:10:00,
2014-02-08 13:15:00,45.3,31.0,30.36,NNW,338,1.0,1.0,57,0.00,,,0.00,Wunderground v.1.13,2014-02-08 18:15:00,
2014-02-08 13:20:00,45.2,31.3,30.36,NNW,338,1.0,1.0,58,0.00,,,0.00,Wunderground v.1.13,2014-02-08 18:20:00,
2014-02-08 13:25:00,45.2,30.9,30.36,NNW,344,0.0,0.0,57,0.00,,,0.00,Wunderground v.1.13,2014-02-08 18:25:00,
2014-02-08 13:30:00,45.3,31.4,30.35,NNW,342,0.0,2.0,58,0.00,,,0.00,Wunderground v.1.13,2014-02-08 18:30:00,
2014-02-08 13:35:00,45.4,31.5,30.35,NNW,342,0.0,0.0,58,0.00,,,0.00,Wunderground v.1.13,2014-02-08 18:35:00,
2014-02-08 13:40:00,45.6,31.2,30.35,NNW,342,0.0,1.0,57,0.00,,,0.00,Wunderground v.1.13,2014-02-08 18:40:00,
2014-02-08 13:45:00,45.8,31.9,30.35,NNW,342,0.0,0.0,58,0.00,,,0.00,Wunderground v.1.13,2014-02-08 18:45:00,
2014-02-08 13:50:00,46.0,31.6,30.34,NNW,342,0.0,1.0,57,0.00,,,0.00,Wunderground v.1.13,2014-02-08 18:50:00,
2014-02-08 13:55:00,46.6,32.6,30.34,NW,321,0.0,3.0,58,0.00,,,0.00,Wunderground v.1.13,2014-02-08 18:55:00,
2014-02-08 14:00:00,46.8,31.9,30.34,NW,314,0.0,1.0,56,0.00,,,0.00,Wunderground v.1.13,2014-02-08 19:00:00,
2014-02-08 14:05:00,46.9,32.9,30.34,WNW,302,0.0,1.0,58,0.00,,,0.00,Wunderground v.1.13,2014-02-08 19:05:00,
2014-02-08 14:10:00,47.3,33.3,30.34,WNW,301,0.0,2.0,58,0.00,,,0.00,Wunderground v.1.13,2014-02-08 19:10:00,
2014-02-08 14:16:00,47.6,32.2,30.34,WNW,301,0.0,2.0,55,0.00,,,0.00,Wunderground v.1.13,2014-02-08 19:16:00,
2014-02-08 14:19:00,47.6,32.7,30.34,WNW,301,0.0,2.0,56,0.00,,,0.00,Wunderground v.1.13,2014-02-08 19:19:00,
2014-02-08 14:24:00,47.3,32.4,30.34,WNW,301,1.0,2.0,56,0.00,,,0.00,Wunderground v.1.13,2014-02-08 19:24:00,
2014-02-08 14:29:00,47.2,32.3,30.34,WNW,300,1.0,2.0,56,0.00,,,0.00,Wunderground v.1.13,2014-02-08 19:29:00,
2014-02-08 14:34:00,47.0,32.5,30.34,WNW,300,0.0,3.0,57,0.00,,,0.00,Wunderground v.1.13,2014-02-08 19:34:00,
2014-02-08 14:39:00,46.9,32.9,30.34,WNW,300,0.0,3.0,58,0.00,,,0.00,Wunderground v.1.13,2014-02-08 19:39:00,
2014-02-08 14:44:00,46.8,32.4,30.35,North,355,2.0,4.0,57,0.00,,,0.00,Wunderground v.1.13,2014-02-08 19:44:00,
2014-02-08 14:49:00,46.4,32.4,30.35,North,9,2.0,4.0,58,0.00,,,0.00,Wunderground v.1.13,2014-02-08 19:49:00,
2014-02-08 14:54:00,46.1,32.6,30.34,NW,313,0.0,3.0,59,0.00,,,0.00,Wunderground v.1.13,2014-02-08 19:54:00,
2014-02-08 14:59:00,45.9,32.8,30.35,North,349,0.0,5.0,60,0.00,,,0.00,Wunderground v.1.13,2014-02-08 19:59:00,
2014-02-08 15:04:00,45.8,33.1,30.35,North,349,0.0,2.0,61,0.00,,,0.00,Wunderground v.1.13,2014-02-08 20:04:00,
2014-02-08 15:09:00,45.6,32.5,30.34,NW,321,1.0,3.0,60,0.00,,,0.00,Wunderground v.1.13,2014-02-08 20:09:00,
2014-02-08 15:14:00,45.5,32.8,30.34,NNE,12,2.0,4.0,61,0.00,,,0.00,Wunderground v.1.13,2014-02-08 20:14:00,
2014-02-08 15:19:00,45.4,33.1,30.33,North,360,2.0,5.0,62,0.00,,,0.00,Wunderground v.1.13,2014-02-08 20:19:00,
2014-02-08 15:24:00,45.5,33.6,30.33,North,355,0.0,3.0,63,0.00,,,0.00,Wunderground v.1.13,2014-02-08 20:24:00,
2014-02-08 15:29:00,45.5,33.2,30.33,NW,310,1.0,3.0,62,0.00,,,0.00,Wunderground v.1.13,2014-02-08 20:29:00,
2014-02-08 15:34:00,45.8,33.5,30.32,NNW,347,1.0,4.0,62,0.00,,,0.00,Wunderground v.1.13,2014-02-08 20:34:00,
2014-02-08 15:39:00,45.8,33.5,30.32,NNW,344,1.0,3.0,62,0.00,,,0.00,Wunderground v.1.13,2014-02-08 20:39:00,
2014-02-08 15:44:00,45.6,33.7,30.33,North,350,0.0,2.0,63,0.00,,,0.00,Wunderground v.1.13,2014-02-08 20:44:00,
2014-02-08 15:49:00,45.9,33.6,30.32,WNW,287,0.0,2.0,62,0.00,,,0.00,Wunderground v.1.13,2014-02-08 20:49:00,
2014-02-08 15:53:00,46.0,33.7,30.32,WNW,287,1.0,1.0,62,0.00,,,0.00,Wunderground v.1.13,2014-02-08 20:53:00,
2014-02-08 15:58:00,46.5,34.2,30.33,NNW,332,1.0,3.0,62,0.00,,,0.00,Wunderground v.1.13,2014-02-08 20:58:00,
2014-02-08 16:03:00,46.9,34.1,30.33,NNW,332,0.0,2.0,61,0.00,,,0.00,Wunderground v.1.13,2014-02-08 21:03:00,
2014-02-08 16:08:00,47.3,34.9,30.33,NW,322,0.0,2.0,62,0.00,,,0.00,Wunderground v.1.13,2014-02-08 21:08:00,
2014-02-08 16:13:00,47.6,34.4,30.33,NW,322,1.0,2.0,60,0.00,,,0.00,Wunderground v.1.13,2014-02-08 21:13:00,
2014-02-08 16:18:00,47.4,34.2,30.33,North,10,1.0,5.0,60,0.00,,,0.00,Wunderground v.1.13,2014-02-08 21:18:00,
2014-02-08 16:23:00,47.0,33.8,30.33,North,9,0.0,1.0,60,0.00,,,0.00,Wunderground v.1.13,2014-02-08 21:23:00,
2014-02-08 16:28:00,46.7,34.4,30.33,North,9,1.0,2.0,62,0.00,,,0.00,Wunderground v.1.13,2014-02-08 21:28:00,
2014-02-08 16:33:00,46.7,34.4,30.33,WNW,290,3.0,3.0,62,0.00,,,0.00,Wunderground v.1.13,2014-02-08 21:33:00,
2014-02-08 16:38:00,46.9,33.7,30.33,West,273,1.0,4.0,60,0.00,,,0.00,Wunderground v.1.13,2014-02-08 21:38:00,
2014-02-08 16:43:00,46.7,34.0,30.33,West,273,0.0,2.0,61,0.00,,,0.00,Wunderground v.1.13,2014-02-08 21:43:00,
2014-02-08 16:48:00,46.3,33.6,30.33,North,350,2.0,3.0,61,0.00,,,0.00,Wunderground v.1.13,2014-02-08 21:48:00,
2014-02-08 16:53:00,45.9,33.6,30.33,North,355,0.0,3.0,62,0.00,,,0.00,Wunderground v.1.13,2014-02-08 21:53:00,
2014-02-08 16:58:00,45.6,33.3,30.32,North,355,0.0,2.0,62,0.00,,,0.00,Wunderground v.1.13,2014-02-08 21:58:00,
2014-02-08 17:03:00,45.5,33.6,30.33,North,355,0.0,2.0,63,0.00,,,0.00,Wunderground v.1.13,2014-02-08 22:03:00,
2014-02-08 17:08:00,45.4,33.5,30.33,North,355,0.0,1.0,63,0.00,,,0.00,Wunderground v.1.13,2014-02-08 22:08:00,
2014-02-08 17:13:00,45.3,33.4,30.33,NNW,342,0.0,3.0,63,0.00,,,0.00,Wunderground v.1.13,2014-02-08 22:13:00,
2014-02-08 17:18:00,45.2,33.7,30.33,NNW,341,0.0,2.0,64,0.00,,,0.00,Wunderground v.1.13,2014-02-08 22:18:00,
2014-02-08 17:23:00,45.2,33.3,30.33,NNW,341,0.0,2.0,63,0.00,,,0.00,Wunderground v.1.13,2014-02-08 22:23:00,
2014-02-08 17:28:00,45.1,33.2,30.33,NNW,341,0.0,1.0,63,0.00,,,0.00,Wunderground v.1.13,2014-02-08 22:28:00,
2014-02-08 17:33:00,44.9,33.1,30.33,NNW,341,0.0,1.0,63,0.00,,,0.00,Wunderground v.1.13,2014-02-08 22:33:00,
2014-02-08 17:38:00,44.8,33.4,30.33,NNW,341,0.0,1.0,64,0.00,,,0.00,Wunderground v.1.13,2014-02-08 22:38:00,
2014-02-08 17:43:00,44.7,33.3,30.33,NNW,341,0.0,1.0,64,0.00,,,0.00,Wunderground v.1.13,2014-02-08 22:43:00,
2014-02-08 17:48:00,44.5,33.1,30.33,NNW,341,0.0,1.0,64,0.00,,,0.00,Wunderground v.1.13,2014-02-08 22:48:00,
2014-02-08 17:53:00,44.4,33.0,30.33,NNW,341,0.0,0.0,64,0.00,,,0.00,Wunderground v.1.13,2014-02-08 22:53:00,
2014-02-08 17:58:00,44.3,33.3,30.33,NNW,341,0.0,0.0,65,0.00,,,0.00,Wunderground v.1.13,2014-02-08 22:58:00,
2014-02-08 18:03:00,44.2,32.8,30.33,NNW,341,0.0,0.0,64,0.00,,,0.00,Wunderground v.1.13,2014-02-08 23:03:00,
2014-02-08 18:08:00,44.0,32.6,30.32,NNW,341,0.0,0.0,64,0.00,,,0.00,Wunderground v.1.13,2014-02-08 23:08:00,
2014-02-08 18:13:00,43.9,32.9,30.33,NNW,341,0.0,0.0,65,0.00,,,0.00,Wunderground v.1.13,2014-02-08 23:13:00,
2014-02-08 18:18:00,43.7,32.7,30.33,NNW,341,0.0,0.0,65,0.00,,,0.00,Wunderground v.1.13,2014-02-08 23:18:00,
2014-02-08 18:24:00,43.4,32.8,30.33,NNW,341,0.0,0.0,66,0.00,,,0.00,Wunderground v.1.13,2014-02-08 23:24:00,
2014-02-08 18:29:00,43.1,32.5,30.33,NNW,341,0.0,0.0,66,0.00,,,0.00,Wunderground v.1.13,2014-02-08 23:29:00,
2014-02-08 18:34:00,43.0,32.8,30.33,NNW,341,0.0,0.0,67,0.00,,,0.00,Wunderground v.1.13,2014-02-08 23:34:00,
2014-02-08 18:39:00,42.7,32.5,30.33,NNW,341,0.0,0.0,67,0.00,,,0.00,Wunderground v.1.13,2014-02-08 23:39:00,
2014-02-08 18:44:00,42.5,32.7,30.33,NNW,341,0.0,0.0,68,0.00,,,0.00,Wunderground v.1.13,2014-02-08 23:44:00,
2014-02-08 18:49:00,42.2,32.4,30.33,NNW,341,0.0,0.0,68,0.00,,,0.00,Wunderground v.1.13,2014-02-08 23:49:00,
2014-02-08 18:54:00,42.0,32.6,30.34,NNW,341,0.0,0.0,69,0.00,,,0.00,Wunderground v.1.13,2014-02-08 23:54:00,
2014-02-08 18:59:00,41.7,32.3,30.34,NNW,341,0.0,0.0,69,0.00,,,0.00,Wunderground v.1.13,2014-02-08 23:59:00,
2014-02-08 19:04:00,41.6,32.5,30.34,NNW,341,0.0,0.0,70,0.00,,,0.00,Wunderground v.1.13,2014-02-09 00:04:00,
2014-02-08 19:09:00,41.5,32.4,30.34,NNW,341,0.0,0.0,70,0.00,,,0.00,Wunderground v.1.13,2014-02-09 00:09:00,
2014-02-08 19:14:00,41.3,32.6,30.33,NNW,341,0.0,0.0,71,0.00,,,0.00,Wunderground v.1.13,2014-02-09 00:14:00,
2014-02-08 19:19:00,41.1,32.4,30.34,NNW,341,0.0,0.0,71,0.00,,,0.00,Wunderground v.1.13,2014-02-09 00:19:00,
2014-02-08 19:24:00,41.0,32.7,30.34,NNW,341,0.0,0.0,72,0.00,,,0.00,Wunderground v.1.13,2014-02-09 00:24:00,
2014-02-08 19:29:00,40.9,32.6,30.34,NNW,341,0.0,0.0,72,0.00,,,0.00,Wunderground v.1.13,2014-02-09 00:29:00,
2014-02-08 19:34:00,40.7,32.4,30.34,NNW,341,0.0,0.0,72,0.00,,,0.00,Wunderground v.1.13,2014-02-09 00:34:00,
2014-02-08 19:39:00,40.5,32.5,30.34,NNW,341,0.0,0.0,73,0.00,,,0.00,Wunderground v.1.13,2014-02-09 00:39:00,
2014-02-08 19:44:00,40.4,32.4,30.33,NNW,341,0.0,0.0,73,0.00,,,0.00,Wunderground v.1.13,2014-02-09 00:44:00,
2014-02-08 19:49:00,40.1,32.5,30.34,NNW,341,0.0,0.0,74,0.00,,,0.00,Wunderground v.1.13,2014-02-09 00:49:00,
2014-02-08 19:54:00,40.0,32.4,30.34,NNW,341,0.0,0.0,74,0.00,,,0.00,Wunderground v.1.13,2014-02-09 00:54:00,
2014-02-08 19:59:00,39.8,32.5,30.34,NNW,341,0.0,0.0,75,0.00,,,0.00,Wunderground v.1.13,2014-02-09 00:59:00,
2014-02-08 20:04:00,39.7,32.4,30.34,NNW,341,0.0,0.0,75,0.00,,,0.00,Wunderground v.1.13,2014-02-09 01:04:00,
2014-02-08 20:09:00,39.6,32.3,30.34,NNW,341,0.0,0.0,75,0.00,,,0.00,Wunderground v.1.13,2014-02-09 01:09:00,
2014-02-08 20:14:00,39.5,32.6,30.34,NNW,341,0.0,0.0,76,0.00,,,0.00,Wunderground v.1.13,2014-02-09 01:14:00,
2014-02-08 20:19:00,39.4,32.5,30.34,NNW,341,0.0,0.0,76,0.00,,,0.00,Wunderground v.1.13,2014-02-09 01:19:00,
2014-02-08 20:24:00,39.3,32.4,30.34,NNW,341,0.0,0.0,76,0.00,,,0.00,Wunderground v.1.13,2014-02-09 01:24:00,
2014-02-08 20:29:00,39.1,32.5,30.34,NNW,341,0.0,0.0,77,0.00,,,0.00,Wunderground v.1.13,2014-02-09 01:29:00,
2014-02-08 20:34:00,38.9,32.3,30.34,NNW,341,0.0,0.0,77,0.00,,,0.00,Wunderground v.1.13,2014-02-09 01:34:00,
2014-02-08 20:39:00,38.7,32.4,30.34,NNW,341,0.0,0.0,78,0.00,,,0.00,Wunderground v.1.13,2014-02-09 01:39:00,
2014-02-08 20:44:00,38.4,32.1,30.34,NNW,341,0.0,0.0,78,0.00,,,0.00,Wunderground v.1.13,2014-02-09 01:44:00,
2014-02-08 20:49:00,38.3,32.4,30.34,NNW,341,0.0,0.0,79,0.00,,,0.00,Wunderground v.1.13,2014-02-09 01:49:00,
2014-02-08 20:54:00,38.2,32.6,30.33,NNW,341,0.0,0.0,80,0.00,,,0.00,Wunderground v.1.13,2014-02-09 01:54:00,
2014-02-08 20:59:00,38.0,32.4,30.34,NNW,341,0.0,0.0,80,0.00,,,0.00,Wunderground v.1.13,2014-02-09 01:59:00,
2014-02-08 21:04:00,37.9,32.3,30.34,NNW,341,0.0,0.0,80,0.00,,,0.00,Wunderground v.1.13,2014-02-09 02:04:00,
2014-02-08 21:09:00,37.7,32.4,30.34,NNW,341,0.0,0.0,81,0.00,,,0.00,Wunderground v.1.13,2014-02-09 02:09:00,
2014-02-08 21:14:00,37.5,32.2,30.34,NNW,341,0.0,0.0,81,0.00,,,0.00,Wunderground v.1.13,2014-02-09 02:14:00,
2014-02-08 21:19:00,37.4,32.1,30.34,NNW,341,0.0,0.0,81,0.00,,,0.00,Wunderground v.1.13,2014-02-09 02:19:00,
2014-02-08 21:24:00,37.3,32.3,30.35,NNW,341,0.0,0.0,82,0.00,,,0.00,Wunderground v.1.13,2014-02-09 02:24:00,
2014-02-08 21:29:00,37.0,32.0,30.35,NNW,341,0.0,0.0,82,0.00,,,0.00,Wunderground v.1.13,2014-02-09 02:29:00,
2014-02-08 21:35:00,36.8,32.1,30.35,NNW,341,0.0,0.0,83,0.00,,,0.00,Wunderground v.1.13,2014-02-09 02:35:00,
2014-02-08 21:40:00,36.6,31.9,30.36,NNW,341,0.0,0.0,83,0.00,,,0.00,Wunderground v.1.13,2014-02-09 02:40:00,
2014-02-08 21:45:00,36.5,32.1,30.36,NNW,341,0.0,0.0,84,0.00,,,0.00,Wunderground v.1.13,2014-02-09 02:45:00,
2014-02-08 21:50:00,36.5,32.1,30.37,NNW,341,0.0,0.0,84,0.00,,,0.00,Wunderground v.1.13,2014-02-09 02:50:00,
2014-02-08 21:55:00,36.4,32.0,30.37,NNW,341,0.0,0.0,84,0.00,,,0.00,Wunderground v.1.13,2014-02-09 02:55:00,
2014-02-08 22:00:00,36.3,32.2,30.37,NNW,341,0.0,0.0,85,0.00,,,0.00,Wunderground v.1.13,2014-02-09 03:00:00,
2014-02-08 22:05:00,36.1,32.0,30.37,NNW,341,0.0,0.0,85,0.00,,,0.00,Wunderground v.1.13,2014-02-09 03:05:00,
2014-02-08 22:10:00,36.0,31.9,30.37,NNW,341,0.0,0.0,85,0.00,,,0.00,Wunderground v.1.13,2014-02-09 03:10:00,
2014-02-08 22:15:00,35.9,32.1,30.37,NNW,341,0.0,0.0,86,0.00,,,0.00,Wunderground v.1.13,2014-02-09 03:15:00,
2014-02-08 22:20:00,35.8,32.3,30.37,NNW,341,0.0,0.0,87,0.00,,,0.00,Wunderground v.1.13,2014-02-09 03:20:00,
2014-02-08 22:25:00,35.9,32.4,30.37,NNW,341,0.0,0.0,87,0.00,,,0.00,Wunderground v.1.13,2014-02-09 03:25:00,
2014-02-08 22:30:00,35.9,32.4,30.37,NNW,341,0.0,0.0,87,0.00,,,0.00,Wunderground v.1.13,2014-02-09 03:30:00,
2014-02-08 22:35:00,35.9,32.4,30.37,NNW,341,0.0,0.0,87,0.00,,,0.00,Wunderground v.1.13,2014-02-09 03:35:00,
2014-02-08 22:40:00,35.9,32.4,30.37,NNW,341,0.0,0.0,87,0.00,,,0.00,Wunderground v.1.13,2014-02-09 03:40:00,
2014-02-08 22:45:00,35.8,32.6,30.37,NNW,341,0.0,0.0,88,0.00,,,0.00,Wunderground v.1.13,2014-02-09 03:45:00,
2014-02-08 22:50:00,35.8,32.3,30.38,NNW,341,0.0,0.0,87,0.00,,,0.00,Wunderground v.1.13,2014-02-09 03:50:00,
2014-02-08 22:55:00,35.8,32.6,30.37,NNW,341,0.0,0.0,88,0.00,,,0.00,Wunderground v.1.13,2014-02-09 03:55:00,
2014-02-08 23:00:00,35.8,32.6,30.38,NNW,341,0.0,0.0,88,0.00,,,0.00,Wunderground v.1.13,2014-02-09 04:00:00,
2014-02-08 23:05:00,35.7,32.5,30.38,NNW,341,0.0,0.0,88,0.00,,,0.00,Wunderground v.1.13,2014-02-09 04:05:00,
2014-02-08 23:10:00,35.8,32.6,30.38,NNW,341,0.0,0.0,88,0.00,,,0.00,Wunderground v.1.13,2014-02-09 04:10:00,
2014-02-08 23:15:00,35.7,32.5,30.37,NNW,341,0.0,0.0,88,0.00,,,0.00,Wunderground v.1.13,2014-02-09 04:15:00,
2014-02-08 23:20:00,35.7,32.5,30.38,NNW,341,0.0,0.0,88,0.00,,,0.00,Wunderground v.1.13,2014-02-09 04:20:00,
2014-02-08 23:25:00,35.7,32.5,30.37,NNW,341,0.0,0.0,88,0.00,,,0.00,Wunderground v.1.13,2014-02-09 04:25:00,
2014-02-08 23:30:00,35.6,32.4,30.37,NNW,341,0.0,0.0,88,0.00,,,0.00,Wunderground v.1.13,2014-02-09 04:30:00,
2014-02-08 23:35:00,35.4,32.5,30.37,NNW,341,0.0,0.0,89,0.00,,,0.00,Wunderground v.1.13,2014-02-09 04:35:00,
2014-02-08 23:40:00,35.2,32.3,30.38,NNW,341,0.0,0.0,89,0.00,,,0.00,Wunderground v.1.13,2014-02-09 04:40:00,
2014-02-08 23:45:00,35.1,32.2,30.37,NNW,341,0.0,0.0,89,0.00,,,0.00,Wunderground v.1.13,2014-02-09 04:45:00,
2014-02-08 23:50:00,35.1,32.5,30.37,NNW,341,0.0,0.0,90,0.00,,,0.00,Wunderground v.1.13,2014-02-09 04:50:00,
2014-02-08 23:55:00,35.1,32.5,30.37,NNW,341,0.0,0.0,90,0.00,,,0.00,Wunderground v.1.13,2014-02-09 04:55:00,